Location: Aldenham
(51.6667°N, 0.3500°W)
Time: 07:56:15
(UTC+00:00)

Explorer 7 - Pass Details

Date: 20 February 2026
Orbit: 430 x 541 km, 50.2° (Epoch: 12 March)

Event Time Altitude Azimuth Distance (km) Brightness Sun altitude
Rises 17:14:41 0° 270° (W) 2,467 11.9 0.7°
Reaches altitude 10° 17:16:48 10° 268° (W) 1,611 11.0 0.4°
Maximum altitude 17:20:25 71° 185° (S) 506 6.8 -0.1°
Drops below altitude 10° 17:24:12 10° 101° (E) 1,677 8.8 -0.7°
Sets 17:26:25 0° 99° (E) 2,581 9.7 -1.0°
